Theta_e
318 318 318 317 317 317 317 316 316 317 316 316 316 316 317 317 317 317 318 319 319 319 320 320 322 323 315 300 305 342 359 357 339 326 328 338 335 330 329 331 327 324 326 328 329 328 328
319 318 318 318 317 317 316 316 316 316 316 316 316 316 316 316 316 316 317 317 318 318 319 320 321 323 310 298 312 328 336 326 323 322 325 337 334 336 329 326 324 328 327 325 326 327 329
318 318 318 318 317 317 316 316 316 315 315 315 315 315 315 315 315 315 316 316 317 318 319 320 321 321 309 302 322 326 324 321 321 323 325 334 341 335 331 328 330 331 322 323 324 326 322
317 317 317 317 317 317 316 316 316 315 315 314 314 314 314 314 314 315 316 316 316 318 320 321 322 315 297 308 312 312 315 319 323 323 333 343 344 339 331 334 332 326 322 310 321 325 322
318 317 316 317 316 316 316 316 315 315 314 314 314 314 315 315 315 316 315 315 317 319 323 324 313 304 298 316 313 315 314 314 321 323 333 344 339 336 333 326 320 322 310 313 317 324 322
317 316 316 317 316 316 315 316 315 315 314 314 314 315 316 316 316 315 314 315 315 316 321 324 321 298 303 307 314 318 312 320 320 322 330 328 328 323 325 321 309 312 313 314 313 319 320
316 316 316 316 316 317 315 315 314 314 314 314 315 315 315 314 314 313 310 300 296 299 308 301 299 300 305 311 314 313 317 316 321 318 312 319 315 313 319 323 323 319 315 313 316 321 318
316 316 316 317 316 316 316 316 316 315 316 315 315 314 314 313 313 313 304 295 300 303 297 305 307 307 308 308 305 308 315 313 315 310 318 316 310 317 327 327 324 321 316 314 317 321 317
316 316 315 315 315 316 316 316 316 316 314 314 313 313 313 312 312 304 299 300 305 304 296 302 303 304 305 308 305 306 312 312 312 310 314 311 316 324 324 321 319 318 312 313 312 318 318
315 315 315 314 315 315 316 315 315 315 314 313 313 313 312 311 302 299 299 304 304 303 290 296 298 303 307 308 304 312 314 315 314 309 314 314 319 323 321 319 320 312 318 317 316 311 305
314 315 314 315 315 315 315 315 314 313 313 312 312 312 313 311 302 298 301 303 301 298 282 298 300 307 304 304 306 309 314 313 313 315 316 313 317 320 318 319 322 316 322 318 317 310 306
314 315 314 315 315 315 315 315 313 313 312 312 312 312 312 305 304 303 305 302 299 291 286 298 302 299 300 301 305 310 311 317 318 318 315 315 325 322 321 324 323 324 318 314 311 306 300
315 315 315 316 315 315 315 314 313 313 312 312 311 310 309 308 298 301 301 297 291 286 297 297 294 297 296 299 301 306 307 311 308 306 306 310 314 319 324 318 321 318 310 302 297 298 299
315 316 316 315 315 315 314 313 312 312 312 311 309 309 308 307 304 305 298 294 286 293 293 298 297 294 296 299 300 303 304 304 306 311 305 305 303 315 320 317 314 313 309 301 296 295 300
315 315 315 315 314 314 313 312 312 311 311 310 309 299 298 301 307 299 295 287 289 292 297 297 295 293 292 297 300 301 300 301 305 310 306 303 305 317 320 323 320 313 306 311 302 300 300
315 315 315 314 314 313 312 312 312 311 311 310 304 298 299 305 306 295 292 290 290 296 298 296 291 293 291 294 294 298 299 303 303 311 310 307 302 310 318 321 319 315 317 306 303 296 294
315 315 314 314 313 313 313 312 312 311 310 309 298 296 301 304 298 293 288 288 293 298 298 295 292 292 292 293 293 293 299 304 306 305 309 305 303 302 314 311 311 313 311 308 307 304 297
314 314 313 313 314 313 313 312 311 310 309 307 294 293 301 300 291 287 289 293 298 295 296 295 295 295 293 293 292 292 296 302 307 308 305 307 302 300 307 313 316 314 311 310 306 300 301
314 314 313 313 313 313 313 312 311 310 309 305 295 295 303 300 288 288 294 295 295 295 296 293 294 297 296 293 292 294 296 303 305 305 304 306 299 297 301 307 310 308 311 309 308 307 302
314 314 314 314 314 313 313 313 311 311 309 301 298 296 298 298 294 294 294 295 298 303 298 297 296 296 294 292 294 294 294 301 303 304 322 313 300 301 299 302 308 307 310 311 308 301 305
314 313 314 314 314 313 313 312 312 311 310 300 298 294 297 292 294 294 294 296 297 298 301 300 295 296 294 289 291 291 295 297 302 311 305 304 299 301 303 308 310 310 310 311 308 311 305
314 313 314 314 314 313 312 312 312 311 308 299 295 295 297 296 295 294 294 295 298 299 298 298 295 300 298 292 296 293 293 293 299 302 297 298 298 301 303 306 310 308 312 312 312 313 309
314 314 314 313 313 313 313 313 312 311 306 296 297 298 297 295 294 292 294 297 298 299 300 302 301 299 297 297 299 301 298 297 298 299 299 299 297 297 296 304 306 302 306 310 311 312 311
314 314 314 314 313 313 313 312 312 311 310 304 301 300 297 293 294 295 298 299 298 299 296 300 301 298 303 305 303 298 295 299 299 298 299 298 295 297 295 297 293 304 311 313 311 312 312
314 314 314 314 313 313 312 313 313 312 311 305 305 301 298 294 296 297 298 299 298 299 298 300 303 304 303 300 296 294 295 298 297 297 297 298 299 294 295 291 297 303 308 308 308 307 312
314 314 314 313 313 313 312 312 312 312 311 308 298 303 301 298 294 300 297 298 295 293 296 300 304 304 302 296 295 290 290 293 293 294 297 298 297 298 291 290 292 300 307 311 312 301 314
314 314 313 312 313 313 312 312 312 312 311 308 305 301 300 297 298 297 296 296 298 296 294 297 300 300 301 295 293 292 292 295 293 292 292 294 293 291 292 291 295 301 307 311 301 304 322
313 313 313 312 313 313 312 312 312 313 313 308 305 306 303 299 299 300 301 299 298 297 293 296 297 297 296 296 293 293 292 295 292 293 293 294 292 290 289 289 290 307 311 303 307 318 326
312 313 313 312 312 313 312 311 312 312 312 311 302 307 308 299 299 303 303 304 304 304 299 298 295 294 296 293 296 296 295 296 294 294 296 295 297 295 295 294 300 305 308 313 316 319 323
Wind_Speed
16 16 16 17 17 18 18 18 18 18 19 19 20 20 20 21 21 21 21 21 21 21 20 18 18 17 7 3 11 3 6 9 8 5 7 5 3 5 4 3 4 2 2 4 6 6 7
15 16 16 16 17 18 18 19 19 19 19 19 20 20 21 21 22 22 22 22 23 22 20 18 15 12 3 4 3 3 8 5 6 5 4 5 6 4 4 1 0 2 5 8 5 5 4
16 15 16 17 18 18 19 19 19 19 19 19 20 20 20 21 22 22 23 24 24 24 22 18 11 3 2 17 4 6 7 5 3 5 4 4 5 3 4 3 3 2 5 7 2 1 1
16 16 17 17 18 19 19 20 20 20 20 20 20 20 20 20 21 23 24 25 26 25 20 11 6 3 10 5 1 7 5 0 4 2 4 5 6 5 4 3 3 3 5 4 4 6 3
15 17 17 18 18 19 19 20 20 21 21 21 21 20 21 21 22 23 25 27 26 11 4 11 5 3 11 5 4 6 9 7 6 3 4 4 3 2 0 1 7 5 2 3 8 2 2
17 17 18 19 19 19 20 19 20 20 21 21 21 20 21 21 21 22 26 26 10 5 2 3 3 2 5 5 4 2 3 9 6 7 4 4 4 1 3 4 5 3 2 3 5 4 5
17 18 19 19 20 19 20 21 21 21 21 22 20 22 22 23 23 22 16 5 4 1 2 10 6 5 4 6 4 3 5 8 8 4 6 3 3 8 12 9 5 4 1 4 4 4 1
16 17 19 19 19 18 19 20 20 21 21 22 22 23 23 24 24 22 1 1 7 3 9 12 14 11 10 4 6 3 6 7 6 5 6 4 9 6 5 5 6 2 7 8 7 7 3
18 19 19 20 20 20 20 20 20 20 22 22 23 22 23 25 26 2 2 5 2 3 2 10 8 8 7 11 10 9 7 4 8 7 6 8 4 11 9 5 9 4 5 5 6 3 1
19 19 19 20 20 20 20 21 21 22 23 23 23 22 22 25 2 4 5 2 5 2 3 9 5 9 7 10 7 9 10 8 3 11 10 6 6 11 7 9 3 3 6 7 3 3 4
19 18 19 19 20 20 20 21 22 23 24 24 24 21 17 11 8 3 0 4 5 2 4 3 4 1 2 11 7 7 7 3 10 7 8 8 8 12 12 9 13 9 5 6 2 1 1
19 19 20 20 20 20 21 21 24 25 25 25 24 20 16 3 3 9 8 7 3 7 8 5 4 4 5 3 3 5 6 3 5 7 2 6 1 7 7 9 16 4 4 6 3 2 1
18 19 20 20 21 22 22 22 25 26 26 28 27 24 12 4 6 4 4 2 5 4 5 4 1 3 3 6 4 5 8 7 8 7 4 1 2 1 5 7 2 3 7 1 1 0 6
18 19 20 21 21 21 22 25 26 27 28 28 32 28 5 11 5 6 3 5 4 5 6 5 3 2 6 6 6 3 7 8 3 7 5 8 4 7 5 7 8 6 8 7 6 6 4
19 19 20 21 22 23 25 26 27 28 29 30 27 2 2 4 8 3 5 3 9 7 3 6 5 7 6 2 6 4 6 9 8 7 8 6 6 1 3 3 3 6 4 4 7 3 2
18 19 20 22 22 24 26 27 28 29 29 31 5 4 3 2 9 2 6 6 4 4 4 4 4 2 5 7 2 6 7 6 7 8 6 8 3 4 4 5 1 5 7 5 3 5 4
18 19 20 21 22 23 25 28 29 30 31 19 1 2 5 2 2 5 5 8 5 7 4 3 1 4 2 3 1 2 6 5 7 9 7 7 5 2 6 7 10 3 2 5 6 5 5
19 20 21 21 21 24 26 27 30 31 30 5 3 5 3 1 5 1 3 4 3 3 3 3 1 6 6 3 4 3 7 9 9 11 11 10 7 6 6 2 1 2 6 7 6 3 1
18 19 20 19 20 23 23 27 30 29 26 3 3 3 2 3 4 3 6 4 4 4 5 3 3 6 4 1 4 4 4 4 5 8 11 8 1 4 4 5 2 2 4 4 5 4 7
17 18 17 17 19 22 23 24 30 29 25 3 2 3 4 4 0 0 3 3 4 4 4 3 5 1 1 3 6 6 3 4 3 6 3 9 6 12 12 7 7 5 5 5 6 5 5
17 17 17 17 18 21 23 24 25 30 26 2 5 2 1 4 3 3 2 2 3 5 4 4 2 6 5 4 2 6 6 5 4 2 3 7 9 8 7 10 9 9 11 15 12 15 11
17 18 18 18 18 20 23 22 23 25 26 5 4 5 5 4 4 5 0 1 1 5 2 5 3 7 6 8 10 4 2 3 6 2 3 2 3 6 15 9 12 8 15 16 20 15 9
17 18 18 18 17 17 18 19 20 19 14 4 3 2 1 4 4 3 2 3 4 9 7 8 6 7 7 9 4 14 10 7 7 5 4 4 4 1 8 6 7 5 9 11 8 10 12
17 17 18 19 19 18 17 16 17 15 9 1 0 1 2 5 2 3 5 9 12 7 7 8 9 5 6 9 8 4 5 8 4 4 1 6 5 2 2 4 4 9 8 13 12 7 13
17 17 17 18 19 18 18 16 15 13 10 2 0 1 1 5 3 13 5 3 7 9 6 7 9 7 8 6 2 3 4 2 4 2 3 2 5 4 5 2 6 3 7 10 10 10 10
16 16 17 19 18 18 17 16 15 13 9 2 1 1 1 4 5 3 4 4 3 4 6 6 6 6 3 0 2 5 6 7 5 3 3 6 6 5 4 4 9 9 4 8 7 9 8
16 16 17 17 17 17 17 15 15 13 10 2 2 3 1 3 6 4 4 3 1 2 4 6 7 8 1 1 2 4 5 4 6 9 5 3 4 5 2 3 7 8 4 3 8 11 7
17 16 16 17 16 16 16 14 14 15 11 3 3 4 2 4 12 12 9 9 4 3 3 5 6 1 4 2 3 3 3 5 2 4 7 6 6 4 3 3 6 5 5 8 7 1 6
19 16 15 15 15 16 17 16 14 14 14 5 3 2 3 4 9 14 19 20 20 13 5 4 3 1 5 1 1 1 1 1 3 3 3 1 7 6 10 9 5 5 4 2 4 6 6
Wind_Direction
7 4 1 358 356 354 353 351 349 348 346 344 342 341 339 337 334 333 329 326 323 320 318 317 319 324 339 348 253 183 166 147 131 159 158 141 151 133 206 170 185 127 224 229 241 262 239
3 1 358 356 354 353 351 349 348 347 345 344 342 340 337 334 333 331 325 321 317 314 312 309 310 320 271 267 271 167 131 122 153 165 150 127 175 206 114 163 196 297 275 269 272 251 223
1 359 357 354 353 351 349 348 346 344 342 341 339 337 335 335 331 326 321 318 313 311 305 296 291 268 244 236 74 88 125 159 218 151 146 132 155 158 134 158 250 194 1 333 202 341 207
358 356 354 351 350 348 348 347 344 342 340 338 336 336 334 329 325 321 318 313 310 308 299 275 212 204 246 246 128 241 170 62 256 72 93 129 131 103 127 239 196 48 56 6 300 3 332
357 355 353 352 351 349 346 345 343 341 339 337 335 330 327 325 323 321 318 311 308 305 328 133 122 177 264 312 254 240 159 167 121 55 98 119 53 75 1 134 28 27 313 334 335 348 275
355 354 352 350 350 349 347 343 342 340 337 334 330 323 323 323 323 323 319 306 283 301 169 206 254 6 270 243 218 176 159 147 140 124 69 62 63 45 63 52 196 226 19 310 307 308 28
354 352 350 347 347 341 343 344 341 338 336 333 328 327 328 326 325 326 330 358 16 6 238 194 200 243 298 286 294 168 147 113 117 110 149 203 135 214 203 181 157 147 210 265 289 277 355
348 347 346 343 342 340 337 334 333 331 330 329 330 330 329 326 324 321 4 56 113 186 305 239 244 257 273 37 322 285 139 123 139 160 112 73 229 217 226 240 221 344 317 284 267 270 116
350 349 347 345 343 339 337 334 332 330 331 331 331 331 329 325 318 12 298 243 40 29 230 285 207 201 210 147 215 247 160 158 138 144 174 156 230 154 177 240 257 255 218 278 244 329 358
350 348 345 346 343 339 336 333 331 331 332 330 329 329 332 330 80 327 263 169 334 229 26 272 250 263 163 145 241 194 191 151 132 173 154 206 186 157 200 208 151 312 219 222 252 137 203
348 345 346 344 341 338 334 332 332 333 330 328 326 326 327 334 296 277 344 346 295 85 330 234 211 125 226 166 153 220 177 70 154 149 119 232 164 166 166 207 165 221 160 167 220 161 38
344 342 344 340 337 335 334 331 333 331 328 325 323 321 322 321 223 245 323 330 86 49 254 319 147 163 131 266 263 109 151 119 146 120 61 184 108 169 188 166 180 131 90 47 56 128 187
341 340 338 336 336 336 333 331 333 330 328 324 320 313 292 238 227 140 300 60 55 161 327 306 25 170 186 171 250 162 154 160 152 113 142 52 216 190 140 109 216 114 94 329 281 321 213
341 338 338 336 335 334 334 336 334 332 329 325 321 311 265 204 229 270 344 65 162 236 248 299 329 272 178 160 242 167 129 166 197 122 132 154 264 171 182 187 173 175 155 168 199 184 212
341 340 338 339 339 339 340 339 337 334 332 328 322 334 254 242 202 111 89 119 201 209 281 327 320 57 349 322 174 148 183 180 175 163 157 135 239 64 106 61 106 180 173 163 100 342 61
343 344 344 347 346 346 344 342 340 337 333 329 319 325 294 21 152 100 84 227 231 220 324 19 56 28 19 324 15 153 184 192 184 172 156 204 183 194 158 113 199 179 161 74 354 172 214
346 345 348 349 349 346 345 344 344 342 336 338 37 34 328 60 98 49 163 226 262 239 224 349 347 340 341 290 297 259 215 240 190 187 141 134 120 227 118 189 179 149 166 60 129 142 157
348 348 350 351 349 349 349 348 347 344 343 24 335 48 327 38 66 13 164 209 250 289 34 331 248 225 220 304 292 274 215 219 188 153 156 197 153 166 205 270 224 157 167 154 132 250 173
343 347 350 349 349 352 348 350 349 345 354 348 16 288 340 18 83 347 302 285 240 233 259 224 262 198 216 224 330 240 259 242 198 152 172 173 173 101 12 354 14 207 209 140 91 120 190
338 342 342 342 347 352 353 351 350 345 352 82 11 12 338 48 18 254 6 305 306 318 260 210 254 221 354 264 221 272 282 300 283 178 184 139 151 182 211 201 153 194 199 199 135 129 233
338 338 340 343 345 353 355 357 353 343 345 89 15 18 128 322 347 343 270 288 325 335 328 317 263 224 188 247 280 222 231 275 278 251 104 144 186 170 193 181 170 182 190 187 198 207 196
335 339 340 344 347 351 354 355 357 351 340 71 58 14 347 290 308 309 271 111 296 334 268 291 211 335 293 227 207 270 286 205 233 253 97 70 275 162 198 178 177 197 210 194 206 219 244
334 335 338 340 347 351 355 353 354 1 -0 43 341 342 86 291 335 332 270 39 349 333 252 251 338 339 281 240 270 261 227 258 244 188 206 118 110 90 218 171 125 257 195 185 199 205 205
329 332 334 338 343 349 354 357 354 1 15 354 112 303 347 286 314 269 322 324 296 281 278 280 298 203 248 332 286 241 187 223 225 276 91 117 110 74 126 90 172 236 186 178 193 215 212
325 326 331 334 340 346 348 351 351 349 358 312 187 210 284 286 269 293 279 245 302 281 257 248 247 245 345 304 2 40 346 92 214 83 216 133 129 94 133 229 272 230 198 154 168 245 196
319 323 327 333 333 339 343 346 351 342 351 298 208 187 303 307 249 310 332 256 273 302 310 272 309 296 330 216 106 161 186 195 211 144 129 94 68 118 139 173 209 232 234 135 105 267 178
313 316 321 326 329 332 334 339 341 338 337 325 284 187 190 260 266 175 209 252 279 270 263 293 326 326 353 27 143 164 225 207 168 161 169 82 53 146 140 193 284 246 253 126 155 256 168
311 313 317 320 321 324 325 329 332 330 329 343 266 186 225 261 281 254 254 244 253 179 208 299 330 302 321 33 164 215 168 223 124 179 166 149 138 190 95 127 259 182 66 159 227 94 120
310 307 309 314 312 318 318 323 321 317 316 313 259 196 209 244 265 290 260 245 234 222 179 238 241 319 251 355 249 284 270 2 152 209 11 269 177 189 176 210 240 256 225 306 174 152 167